STARLINK-35671

Last updated on Wed Dec 10 2025 00:02:05 GMT+0000 (Coordinated Universal Time)

1 66392U 25257N 25343.12139271 .00054362 00000+0 13580-2 0 9998 2 66392 53.1605 281.4947 0001061 84.7676 275.3450 15.39651087 5814
UTC large
Height (km)
Speed (km/s)
/
Latitude / Longitude
Inclination (degrees)
Orbital Period (minutes)
Azimuth
Elevation
Range (km)
Doppler Factor

Next 0 passes for location: London (51.5072 / 0.1276)

Sorry there are no passes over London.